,,PA_Meas_PMT16A,,PR_Meas_QMR101_102,,RH_Meas_QMH101,,SR_Meas_QMS101,,TA_Meas_QMH101,,GenWind,,GenWind,
time,status,PA,status,PR,status,RH,status,SR,status,TA,status,DirAvg,status,SpdAvg,
2010-02-12, 00:00:04,VALID,919.495,VALID,0,VALID,91.7173,VALID,0.107441,VALID,21.6128,VALID,138,VALID,0.636328,
2010-02-12, 00:01:04,VALID,919.507,VALID,0,VALID,91.7783,VALID,0,VALID,21.5721,VALID,138,VALID,0.746094,
2010-02-12, 00:02:04,VALID,919.506,VALID,0,VALID,91.8545,VALID,0,VALID,21.6128,VALID,138,VALID,0.827344,
2010-02-12, 00:03:04,VALID,919.476,VALID,0,VALID,91.4505,VALID,0,VALID,21.6713,VALID,138,VALID,0.972266,
2010-02-12, 00:04:04,VALID,919.432,VALID,0,VALID,90.9931,VALID,0,VALID,21.7298,VALID,138,VALID,0.994141,
2010-02-12, 00:05:04,VALID,919.43,VALID,0,VALID,90.8787,VALID,0,VALID,21.7282,VALID,138,VALID,0.741016,
2010-02-12, 00:06:04,VALID,919.388,VALID,0,VALID,91.0007,VALID,0,VALID,21.7282,VALID,138,VALID,0.834766,
2010-02-12, 00:07:04,VALID,919.362,VALID,0,VALID,91.0007,VALID,0,VALID,21.7103,VALID,138,VALID,0.630078,
2010-02-12, 00:08:04,VALID,919.336,VALID,0,VALID,91.2142,VALID,0.107441,VALID,21.7103,VALID,138,VALID,0.715234,
2010-02-12, 00:09:04,VALID,919.312,VALID,0,VALID,91.5496,VALID,0,VALID,21.6713,VALID,138,VALID,0.932422,
2010-02-12, 00:10:04,VALID,919.267,VALID,0,VALID,91.8012,VALID,0,VALID,21.6323,VALID,138,VALID,1.09883,
2010-02-12, 00:11:04,VALID,919.277,VALID,0,VALID,92.0909,VALID,0,VALID,21.5932,VALID,138,VALID,0.910937,
2010-02-12, 00:12:04,VALID,919.204,VALID,0,VALID,92.0985,VALID,0.107441,VALID,21.5916,VALID,138,VALID,1.13672,
2010-02-12, 00:13:04,VALID,919.233,VALID,0,VALID,91.8164,VALID,0,VALID,21.5949,VALID,138,VALID,1.28516,
2010-02-12, 00:14:04,VALID,919.25,VALID,0,VALID,91.6792,VALID,0,VALID,21.6128,VALID,138,VALID,1.0332,
2010-02-12, 00:15:04,VALID,919.225,VALID,0,VALID,91.542,VALID,0,VALID,21.6323,VALID,138,VALID,0.610937,
2010-02-12, 00:16:04,VALID,919.233,VALID,0,VALID,91.237,VALID,0,VALID,21.6128,VALID,138,VALID,0.34375,
2010-02-12, 00:17:04,VALID,919.229,VALID,0,VALID,91.42,VALID,0,VALID,21.6128,VALID,138,VALID,0.946875,
2010-02-12, 00:18:04,VALID,919.229,VALID,0,VALID,91.4734,VALID,0,VALID,21.5932,VALID,138,VALID,0.717969,
2010-02-12, 00:19:04,VALID,919.218,VALID,0,VALID,91.6106,VALID,0,VALID,21.5347,VALID,138,VALID,0.64375,
2010-02-12, 00:20:04,VALID,919.22,VALID,0,VALID,92.0909,VALID,0,VALID,21.4973,VALID,138,VALID,0.78125,
2010-02-12, 00:21:04,VALID,919.217,VALID,0,VALID,92.4949,VALID,0,VALID,21.4177,VALID,138,VALID,1.1457,
2010-02-12, 00:22:04,VALID,919.189,VALID,0,VALID,92.9142,VALID,0,VALID,21.3608,VALID,138,VALID,1.17578,
2010-02-12, 00:23:04,VALID,919.181,VALID,0,VALID,93.5088,VALID,0,VALID,21.3022,VALID,138,VALID,0.941016,
2010-02-12, 00:24:04,VALID,919.144,VALID,0,VALID,93.7451,VALID,0,VALID,21.2421,VALID,138,VALID,0.506641,
2010-02-12, 00:25:04,VALID,919.125,VALID,0,VALID,93.8214,VALID,0,VALID,21.2031,VALID,138,VALID,0.707031,
2010-02-12, 00:26:04,VALID,919.129,VALID,0,VALID,93.6842,VALID,0,VALID,21.1836,VALID,138,VALID,1.03594,
2010-02-12, 00:27:04,VALID,919.131,VALID,0,VALID,93.3564,VALID,0,VALID,21.2226,VALID,138,VALID,0.819531,
2010-02-12, 00:28:04,VALID,919.076,VALID,0,VALID,93.0057,VALID,0,VALID,21.3006,VALID,138,VALID,0.855859,
2010-02-12, 00:29:04,VALID,919.052,VALID,0,VALID,92.6931,VALID,0,VALID,21.3786,VALID,138,VALID,0.812891,
2010-02-12, 00:30:04,VALID,919.065,VALID,0,VALID,91.9841,VALID,0,VALID,21.4778,VALID,138,VALID,0.960156,
2010-02-12, 00:31:04,VALID,919.057,VALID,0,VALID,91.4124,VALID,0,VALID,21.5542,VALID,139,VALID,0.616797,
2010-02-12, 00:32:04,VALID,919.037,VALID,0,VALID,91.0388,VALID,0,VALID,21.5932,VALID,139,VALID,0.366406,
2010-02-12, 00:33:04,VALID,919.042,VALID,0,VALID,90.894,VALID,0,VALID,21.6128,VALID,139,VALID,0.645703,
2010-02-12, 00:34:04,VALID,919.043,VALID,0,VALID,90.5509,VALID,0,VALID,21.6518,VALID,139,VALID,0.537109,
2010-02-12, 00:35:04,VALID,919.069,VALID,0,VALID,90.1774,VALID,0,VALID,21.712,VALID,139,VALID,0.951172,
2010-02-12, 00:36:04,VALID,919.044,VALID,0,VALID,89.7505,VALID,0,VALID,21.7315,VALID,139,VALID,0.907031,
2010-02-12, 00:37:04,VALID,919.042,VALID,0,VALID,89.4074,VALID,0,VALID,21.79,VALID,139,VALID,1.04609,
2010-02-12, 00:38:04,VALID,919.05,VALID,0,VALID,89.2397,VALID,0,VALID,21.7883,VALID,139,VALID,0.901172,
2010-02-12, 00:39:04,VALID,919.026,VALID,0,VALID,89.1787,VALID,0,VALID,21.7883,VALID,139,VALID,0.630078,
2010-02-12, 00:40:04,VALID,919.03,VALID,0,VALID,89.1177,VALID,0,VALID,21.7883,VALID,139,VALID,0.614844,
2010-02-12, 00:41:04,VALID,918.997,VALID,0,VALID,89.1559,VALID,0,VALID,21.79,VALID,139,VALID,0.397656,
2010-02-12, 00:42:04,VALID,918.986,VALID,0,VALID,89.3846,VALID,0,VALID,21.7493,VALID,139,VALID,0,
2010-02-12, 00:43:04,VALID,918.976,VALID,0,VALID,89.8267,VALID,0,VALID,21.7298,VALID,139,VALID,0.544922,
2010-02-12, 00:44:04,VALID,918.956,VALID,0,VALID,89.6666,VALID,0,VALID,21.8095,VALID,139,VALID,0.671484,
2010-02-12, 00:45:04,VALID,918.95,VALID,0,VALID,89.2854,VALID,0,VALID,21.8681,VALID,139,VALID,0.680469,
2010-02-12, 00:46:04,VALID,918.951,VALID,0,VALID,89.0567,VALID,0,VALID,21.9054,VALID,139,VALID,0.603906,
2010-02-12, 00:47:04,VALID,918.942,VALID,0,VALID,89.0491,VALID,0,VALID,21.8859,VALID,139,VALID,0.447656,
2010-02-12, 00:48:04,VALID,918.931,VALID,0,VALID,89.2168,VALID,0,VALID,21.9054,VALID,139,VALID,0.566797,
2010-02-12, 00:49:04,VALID,918.895,VALID,0,VALID,89.2778,VALID,0,VALID,21.9249,VALID,139,VALID,0.355078,
2010-02-12, 00:50:04,VALID,918.877,VALID,0,VALID,89.476,VALID,0,VALID,21.9461,VALID,139,VALID,0.373437,
2010-02-12, 00:51:04,VALID,918.826,VALID,0,VALID,89.3541,VALID,0,VALID,21.9054,VALID,139,VALID,0.353906,
2010-02-12, 00:52:04,VALID,918.819,VALID,0,VALID,89.3846,VALID,0,VALID,21.9266,VALID,139,VALID,0.0363281,
2010-02-12, 00:53:04,VALID,918.811,VALID,0,VALID,89.133,VALID,0,VALID,21.8859,VALID,139,VALID,0.121875,
2010-02-12, 00:54:04,VALID,918.852,VALID,0,VALID,89.9182,VALID,0,VALID,21.8485,VALID,139,VALID,0.741797,
2010-02-12, 00:55:04,VALID,918.82,VALID,0,VALID,89.7657,VALID,0,VALID,21.8469,VALID,139,VALID,0.849219,
2010-02-12, 00:56:04,VALID,918.828,VALID,0,VALID,89.3769,VALID,0,VALID,21.8469,VALID,138,VALID,1.08477,
2010-02-12, 00:57:04,VALID,918.837,VALID,0,VALID,89.1254,VALID,0,VALID,21.8664,VALID,137,VALID,1.02227,
2010-02-12, 00:58:04,VALID,918.812,VALID,0,VALID,88.828,VALID,0,VALID,21.9054,VALID,137,VALID,0.621094,
2010-02-12, 00:59:04,VALID,918.799,VALID,0,VALID,88.302,VALID,0,VALID,21.8859,VALID,137,VALID,1.11719,
2010-02-12, 01:00:04,VALID,918.794,VALID,0,VALID,88.1877,VALID,0,VALID,21.9444,VALID,137,VALID,1.04375,
2010-02-12, 01:01:04,VALID,918.795,VALID,0,VALID,88.2182,VALID,0,VALID,21.9461,VALID,137,VALID,0.605859,
2010-02-12, 01:02:04,VALID,918.813,VALID,0,VALID,88.1648,VALID,0,VALID,21.9249,VALID,137,VALID,1.14141,
2010-02-12, 01:03:04,VALID,918.826,VALID,0,VALID,87.6998,VALID,0,VALID,22.0242,VALID,137,VALID,0.865234,
2010-02-12, 01:04:04,VALID,918.825,VALID,0,VALID,87.715,VALID,0,VALID,22.0225,VALID,137,VALID,0.964453,
2010-02-12, 01:05:04,VALID,918.835,VALID,0,VALID,87.8675,VALID,0,VALID,22.0047,VALID,137,VALID,0.928516,
2010-02-12, 01:06:04,VALID,918.843,VALID,0,VALID,87.5549,VALID,0,VALID,22.0437,VALID,137,VALID,1.05977,
2010-02-12, 01:07:04,VALID,918.801,VALID,0,VALID,87.4634,VALID,0.107441,VALID,22.081,VALID,137,VALID,0.725,
2010-02-12, 01:08:04,VALID,918.811,VALID,0,VALID,87.6007,VALID,0,VALID,22.081,VALID,137,VALID,0.821484,
2010-02-12, 01:09:04,VALID,918.774,VALID,0,VALID,87.5168,VALID,0,VALID,22.042,VALID,137,VALID,0.917969,
2010-02-12, 01:10:04,VALID,918.748,VALID,0,VALID,86.6554,VALID,0,VALID,22.081,VALID,137,VALID,0.892578,
2010-02-12, 01:11:04,VALID,918.697,VALID,0,VALID,86.6935,VALID,0,VALID,22.1005,VALID,137,VALID,0.738281,
2010-02-12, 01:12:04,VALID,918.691,VALID,0,VALID,86.7545,VALID,0,VALID,22.1005,VALID,137,VALID,0.7,
2010-02-12, 01:13:04,VALID,918.693,VALID,0,VALID,86.8155,VALID,0,VALID,22.081,VALID,137,VALID,0.740234,
2010-02-12, 01:14:04,VALID,918.682,VALID,0,VALID,86.6706,VALID,0,VALID,22.1217,VALID,137,VALID,0.834766,
2010-02-12, 01:15:04,VALID,918.692,VALID,0,VALID,86.3885,VALID,0,VALID,22.1803,VALID,137,VALID,0.628125,
2010-02-12, 01:16:04,VALID,918.68,VALID,0,VALID,86.2285,VALID,0,VALID,22.1998,VALID,137,VALID,0.906641,
2010-02-12, 01:17:04,VALID,918.676,VALID,0,VALID,86.2437,VALID,0,VALID,22.1786,VALID,137,VALID,0.985547,
2010-02-12, 01:18:04,VALID,918.676,VALID,0,VALID,86.2666,VALID,0,VALID,22.1786,VALID,137,VALID,0.89375,
2010-02-12, 01:19:04,VALID,918.658,VALID,0,VALID,86.1751,VALID,0,VALID,22.1786,VALID,137,VALID,1.10039,
2010-02-12, 01:20:04,VALID,918.653,VALID,0,VALID,86.0074,VALID,0,VALID,22.1803,VALID,137,VALID,0.739062,
2010-02-12, 01:21:04,VALID,918.676,VALID,0,VALID,86.0455,VALID,0,VALID,22.1396,VALID,137,VALID,0.769141,
2010-02-12, 01:22:04,VALID,918.645,VALID,0,VALID,86.2361,VALID,0,VALID,22.1005,VALID,137,VALID,1.54414,
2010-02-12, 01:23:04,VALID,918.607,VALID,0,VALID,86.602,VALID,0,VALID,22.0615,VALID,137,VALID,0.926953,
2010-02-12, 01:24:04,VALID,918.561,VALID,0,VALID,87.0137,VALID,0,VALID,21.9835,VALID,137,VALID,0.958594,
2010-02-12, 01:25:04,VALID,918.55,VALID,0,VALID,87.0975,VALID,0,VALID,22.003,VALID,137,VALID,0.987891,
2010-02-12, 01:26:04,VALID,918.505,VALID,0,VALID,86.9984,VALID,0,VALID,21.9835,VALID,137,VALID,1.19375,
2010-02-12, 01:27:04,VALID,918.528,VALID,0,VALID,86.9603,VALID,0,VALID,22.003,VALID,137,VALID,1.25469,
2010-02-12, 01:28:04,VALID,918.532,VALID,0,VALID,87.1738,VALID,0,VALID,21.9851,VALID,137,VALID,1.27344,
2010-02-12, 01:29:04,VALID,918.526,VALID,0,VALID,87.5321,VALID,0.107441,VALID,21.9444,VALID,137,VALID,1.43047,
2010-02-12, 01:30:04,VALID,918.51,VALID,0,VALID,87.6312,VALID,0,VALID,21.9071,VALID,137,VALID,1.09531,
2010-02-12, 01:31:04,VALID,918.46,VALID,0,VALID,87.5168,VALID,0,VALID,21.9071,VALID,137,VALID,1.26094,
2010-02-12, 01:32:04,VALID,918.437,VALID,0,VALID,87.9513,VALID,0,VALID,21.8664,VALID,137,VALID,0.555078,
2010-02-12, 01:33:04,VALID,918.408,VALID,0,VALID,87.654,VALID,0,VALID,21.8859,VALID,137,VALID,0.446484,
2010-02-12, 01:34:04,VALID,918.413,VALID,0,VALID,87.9285,VALID,0,VALID,21.8274,VALID,137,VALID,1.05508,
2010-02-12, 01:35:04,VALID,918.404,VALID,0,VALID,88.2868,VALID,0,VALID,21.7883,VALID,137,VALID,1.09141,
2010-02-12, 01:36:04,VALID,918.411,VALID,0,VALID,88.3249,VALID,0,VALID,21.7688,VALID,137,VALID,0.787891,
2010-02-12, 01:37:04,VALID,918.408,VALID,0,VALID,88.4469,VALID,0,VALID,21.7298,VALID,137,VALID,0.400781,
2010-02-12, 01:38:04,VALID,918.417,VALID,0,VALID,88.4088,VALID,0,VALID,21.7493,VALID,137,VALID,0.438281,
2010-02-12, 01:39:04,VALID,918.421,VALID,0,VALID,88.1877,VALID,0,VALID,21.7103,VALID,137,VALID,0.426953,
2010-02-12, 01:40:04,VALID,918.388,VALID,0,VALID,88.7366,VALID,0,VALID,21.6518,VALID,137,VALID,0.757422,
2010-02-12, 01:41:04,VALID,918.409,VALID,0,VALID,88.7671,VALID,0,VALID,21.6713,VALID,137,VALID,0.724609,
2010-02-12, 01:42:04,VALID,918.395,VALID,0,VALID,88.6375,VALID,0,VALID,21.6323,VALID,137,VALID,0.758203,
2010-02-12, 01:43:04,VALID,918.355,VALID,0,VALID,88.4164,VALID,0,VALID,21.5932,VALID,137,VALID,0.696875,
2010-02-12, 01:44:04,VALID,918.321,VALID,0,VALID,88.5231,VALID,0,VALID,21.5737,VALID,137,VALID,0.633203,
2010-02-12, 01:45:04,VALID,918.346,VALID,0,VALID,88.3478,VALID,0,VALID,21.5932,VALID,137,VALID,0.443359,
2010-02-12, 01:46:04,VALID,918.359,VALID,0,VALID,88.3401,VALID,0,VALID,21.5932,VALID,137,VALID,0.437109,
2010-02-12, 01:47:04,VALID,918.324,VALID,0,VALID,88.8357,VALID,0,VALID,21.5542,VALID,137,VALID,0.730078,
2010-02-12, 01:48:04,VALID,918.325,VALID,0,VALID,89.0186,VALID,0,VALID,21.5363,VALID,137,VALID,0.927734,
2010-02-12, 01:49:04,VALID,918.274,VALID,0,VALID,88.8662,VALID,0,VALID,21.5347,VALID,137,VALID,0.488281,
2010-02-12, 01:50:04,VALID,918.267,VALID,0,VALID,88.6908,VALID,0,VALID,21.5754,VALID,137,VALID,1.05469,
2010-02-12, 01:51:04,VALID,918.27,VALID,0,VALID,88.607,VALID,0,VALID,21.5737,VALID,137,VALID,1.1457,
2010-02-12, 01:52:04,VALID,918.238,VALID,0,VALID,88.2563,VALID,0,VALID,21.6729,VALID,137,VALID,1.25273,
2010-02-12, 01:53:04,VALID,918.281,VALID,0,VALID,87.7684,VALID,0,VALID,21.7103,VALID,137,VALID,1.31953,
2010-02-12, 01:54:04,VALID,918.25,VALID,0,VALID,87.8446,VALID,0,VALID,21.6908,VALID,137,VALID,0.739453,
2010-02-12, 01:55:04,VALID,918.222,VALID,0,VALID,88.0809,VALID,0,VALID,21.6713,VALID,137,VALID,0.711719,
2010-02-12, 01:56:04,VALID,918.202,VALID,0,VALID,88.0276,VALID,0,VALID,21.6518,VALID,137,VALID,0.941797,
2010-02-12, 01:57:04,VALID,918.21,VALID,0,VALID,87.898,VALID,0,VALID,21.6323,VALID,137,VALID,1.075,
2010-02-12, 01:58:04,VALID,918.213,VALID,0,VALID,87.9437,VALID,0,VALID,21.6518,VALID,137,VALID,1.09805,
2010-02-12, 01:59:04,VALID,918.175,VALID,0,VALID,87.9056,VALID,0,VALID,21.6518,VALID,137,VALID,0.895703,
2010-02-12, 02:00:04,VALID,918.183,VALID,0,VALID,88.0047,VALID,0,VALID,21.6323,VALID,137,VALID,0.596094,
2010-02-12, 02:01:04,VALID,918.155,VALID,0,VALID,87.4482,VALID,0,VALID,21.6713,VALID,137,VALID,1.21953,
2010-02-12, 02:02:04,VALID,918.131,VALID,0,VALID,87.4101,VALID,0,VALID,21.7705,VALID,137,VALID,1.13047,
2010-02-12, 02:03:04,VALID,918.112,VALID,0,VALID,87.1204,VALID,0,VALID,21.8079,VALID,137,VALID,1.13984,
2010-02-12, 02:04:04,VALID,918.093,VALID,0,VALID,87.2195,VALID,0,VALID,21.7688,VALID,137,VALID,0.787109,
2010-02-12, 02:05:04,VALID,918.07,VALID,0,VALID,87.25,VALID,0,VALID,21.7493,VALID,137,VALID,1.08867,
2010-02-12, 02:06:04,VALID,918.099,VALID,0,VALID,87.311,VALID,0,VALID,21.7705,VALID,137,VALID,1.20195,
2010-02-12, 02:07:04,VALID,918.111,VALID,0,VALID,87.2881,VALID,0,VALID,21.7688,VALID,137,VALID,0.925781,
2010-02-12, 02:08:04,VALID,918.099,VALID,0,VALID,87.5702,VALID,0,VALID,21.7103,VALID,137,VALID,0.959375,
2010-02-12, 02:09:04,VALID,918.075,VALID,0,VALID,87.837,VALID,0,VALID,21.6924,VALID,137,VALID,1.04805,
2010-02-12, 02:10:04,VALID,918.055,VALID,0,VALID,87.898,VALID,0,VALID,21.6713,VALID,137,VALID,0.757031,
2010-02-12, 02:11:04,VALID,918.037,VALID,0,VALID,87.0518,VALID,0,VALID,21.6534,VALID,137,VALID,0.788672,
2010-02-12, 02:12:04,VALID,918.053,VALID,0,VALID,88.302,VALID,0,VALID,21.5737,VALID,137,VALID,0.987891,
2010-02-12, 02:13:04,VALID,918.087,VALID,0,VALID,88.0962,VALID,0,VALID,21.5559,VALID,136,VALID,1.08438,
2010-02-12, 02:14:04,VALID,918.125,VALID,0,VALID,88.7289,VALID,0,VALID,21.4762,VALID,136,VALID,1.68711,
2010-02-12, 02:15:04,VALID,918.103,VALID,0,VALID,87.9513,VALID,0,VALID,21.5754,VALID,136,VALID,1.61211,
2010-02-12, 02:16:04,VALID,918.146,VALID,0,VALID,87.5549,VALID,0,VALID,21.6534,VALID,129,VALID,1.27344,
2010-02-12, 02:17:04,VALID,918.088,VALID,0,VALID,87.3186,VALID,0,VALID,21.6323,VALID,119,VALID,1.42891,
2010-02-12, 02:18:04,VALID,918.096,VALID,0,VALID,86.6859,VALID,0,VALID,21.6729,VALID,119,VALID,1.57461,
2010-02-12, 02:19:04,VALID,918.083,VALID,0,VALID,86.9146,VALID,0,VALID,21.6908,VALID,119,VALID,1.525,
2010-02-12, 02:20:04,VALID,918.063,VALID,0,VALID,87.0213,VALID,0,VALID,21.6908,VALID,116,VALID,1.44023,
2010-02-12, 02:21:04,VALID,918.055,VALID,0,VALID,86.9069,VALID,0,VALID,21.6924,VALID,116,VALID,1.64844,
2010-02-12, 02:22:04,VALID,918.068,VALID,0,VALID,87.0975,VALID,0,VALID,21.6713,VALID,116,VALID,1.39883,
2010-02-12, 02:23:04,VALID,918.047,VALID,0,VALID,87.6083,VALID,0,VALID,21.6339,VALID,115,VALID,1.35664,
2010-02-12, 02:24:04,VALID,918.047,VALID,0,VALID,87.9437,VALID,0,VALID,21.5542,VALID,115,VALID,1.33672,
2010-02-12, 02:25:04,VALID,917.985,VALID,0,VALID,88.0962,VALID,0,VALID,21.5542,VALID,115,VALID,1.42305,
2010-02-12, 02:26:04,VALID,917.982,VALID,0,VALID,88.2715,VALID,0,VALID,21.5347,VALID,115,VALID,1.16328,
2010-02-12, 02:27:04,VALID,917.938,VALID,0,VALID,87.9513,VALID,0,VALID,21.5363,VALID,115,VALID,0.507422,
2010-02-12, 02:28:04,VALID,917.965,VALID,0,VALID,89.3846,VALID,0,VALID,21.3981,VALID,115,VALID,1.20234,
2010-02-12, 02:29:04,VALID,917.944,VALID,0,VALID,90.8101,VALID,0,VALID,21.2632,VALID,115,VALID,1.36094,
2010-02-12, 02:30:04,VALID,917.928,VALID,0,VALID,91.4962,VALID,0,VALID,21.086,VALID,115,VALID,1.19922,
2010-02-12, 02:31:04,VALID,917.932,VALID,0,VALID,92.1442,VALID,0,VALID,20.9706,VALID,115,VALID,0.765625,
2010-02-12, 02:32:04,VALID,917.918,VALID,0,VALID,92.9676,VALID,0,VALID,20.8324,VALID,115,VALID,1.20156,
2010-02-12, 02:33:04,VALID,917.915,VALID,0,VALID,93.4555,VALID,0,VALID,20.717,VALID,115,VALID,1.0918,
2010-02-12, 02:34:04,VALID,917.888,VALID,0,VALID,93.9967,VALID,0,VALID,20.639,VALID,115,VALID,1.25312,
2010-02-12, 02:35:04,VALID,917.894,VALID,0,VALID,94.3779,VALID,0.107441,VALID,20.5399,VALID,115,VALID,0.821094,
2010-02-12, 02:36:04,VALID,917.881,VALID,0,VALID,94.6066,VALID,0,VALID,20.4423,VALID,115,VALID,1.31719,
2010-02-12, 02:37:04,VALID,917.901,VALID,0,VALID,94.8124,VALID,0,VALID,20.3854,VALID,115,VALID,0.958203,
2010-02-12, 02:38:04,VALID,917.898,VALID,0,VALID,95.0716,VALID,0,VALID,20.3659,VALID,115,VALID,1.28672,
2010-02-12, 02:39:04,VALID,917.86,VALID,0,VALID,95.1326,VALID,0,VALID,20.4049,VALID,115,VALID,1.27227,
2010-02-12, 02:40:04,VALID,917.819,VALID,0,VALID,94.7667,VALID,0,VALID,20.4829,VALID,115,VALID,1.29883,
2010-02-12, 02:41:04,VALID,917.82,VALID,0,VALID,94.0196,VALID,0,VALID,20.5399,VALID,115,VALID,1.4293,
2010-02-12, 02:42:04,VALID,917.813,VALID,0,VALID,93.4631,VALID,0,VALID,20.6374,VALID,115,VALID,1.45742,
2010-02-12, 02:43:04,VALID,917.779,VALID,0,VALID,92.9599,VALID,0.107441,VALID,20.6975,VALID,115,VALID,1.24648,
2010-02-12, 02:44:04,VALID,917.789,VALID,0,VALID,91.824,VALID,0,VALID,20.912,VALID,115,VALID,1.08711,
2010-02-12, 02:45:04,VALID,917.797,VALID,0,VALID,90.8254,VALID,0,VALID,21.0681,VALID,115,VALID,1.11875,
2010-02-12, 02:46:04,VALID,917.778,VALID,0,VALID,89.8801,VALID,0.107441,VALID,21.2047,VALID,115,VALID,0.614844,
2010-02-12, 02:47:04,VALID,917.775,VALID,0,VALID,88.8662,VALID,0,VALID,21.2632,VALID,115,VALID,0.961719,
2010-02-12, 02:48:04,VALID,917.794,VALID,0,VALID,89.5523,VALID,0,VALID,21.2421,VALID,115,VALID,1.48516,
2010-02-12, 02:49:04,VALID,917.781,VALID,0,VALID,89.72,VALID,0,VALID,21.1836,VALID,115,VALID,1.16836,
2010-02-12, 02:50:04,VALID,917.801,VALID,0,VALID,89.72,VALID,0,VALID,21.164,VALID,115,VALID,1.26211,
2010-02-12, 02:51:04,VALID,917.782,VALID,0,VALID,89.659,VALID,0,VALID,21.2031,VALID,115,VALID,1.13281,
2010-02-12, 02:52:04,VALID,917.834,VALID,0,VALID,89.9182,VALID,0,VALID,21.2827,VALID,115,VALID,1.51094,
2010-02-12, 02:53:04,VALID,917.829,VALID,0,VALID,89.9792,VALID,0,VALID,21.2632,VALID,115,VALID,1.49258,
2010-02-12, 02:54:04,VALID,917.841,VALID,0,VALID,89.8343,VALID,0,VALID,21.2421,VALID,115,VALID,0.925781,
2010-02-12, 02:55:04,VALID,917.874,VALID,0,VALID,90.3832,VALID,0,VALID,21.2226,VALID,115,VALID,1.29258,
2010-02-12, 02:56:04,VALID,917.833,VALID,0,VALID,90.2689,VALID,0,VALID,21.2811,VALID,115,VALID,0.812891,
2010-02-12, 02:57:04,VALID,917.84,VALID,0,VALID,90.1316,VALID,0,VALID,21.3006,VALID,115,VALID,0.997656,
2010-02-12, 02:58:04,VALID,917.835,VALID,0,VALID,90.2917,VALID,0,VALID,21.3006,VALID,115,VALID,1.10039,
2010-02-12, 02:59:04,VALID,917.79,VALID,0,VALID,90.2384,VALID,0,VALID,21.3217,VALID,115,VALID,0.626562,
2010-02-12, 03:00:04,VALID,917.772,VALID,0,VALID,90.4137,VALID,0,VALID,21.3217,VALID,115,VALID,0.319531,
2010-02-12, 03:01:04,VALID,917.747,VALID,0,VALID,90.4976,VALID,0,VALID,21.3022,VALID,115,VALID,0.729297,
2010-02-12, 03:02:04,VALID,917.739,VALID,0,VALID,90.6348,VALID,0,VALID,21.2827,VALID,115,VALID,0.789063,
2010-02-12, 03:03:04,VALID,917.742,VALID,0,VALID,90.6958,VALID,0,VALID,21.2421,VALID,115,VALID,0.698828,
2010-02-12, 03:04:04,VALID,917.71,VALID,0,VALID,90.2536,VALID,0,VALID,21.2827,VALID,115,VALID,1.23125,
2010-02-12, 03:05:04,VALID,917.707,VALID,0,VALID,90.2231,VALID,0,VALID,21.3217,VALID,115,VALID,1.00234,
2010-02-12, 03:06:04,VALID,917.688,VALID,0,VALID,90.0859,VALID,0,VALID,21.3201,VALID,117,VALID,1.45547,
2010-02-12, 03:07:04,VALID,917.724,VALID,0,VALID,90.1164,VALID,0,VALID,21.3201,VALID,131,VALID,1.22187,
2010-02-12, 03:08:04,VALID,917.664,VALID,0,VALID,90.368,VALID,0.107441,VALID,21.3201,VALID,141,VALID,1.1332,
2010-02-12, 03:09:04,VALID,917.678,VALID,0,VALID,90.3375,VALID,0,VALID,21.3608,VALID,117,VALID,0.868359,
2010-02-12, 03:10:04,VALID,917.654,VALID,0,VALID,90.429,VALID,0,VALID,21.3591,VALID,117,VALID,0.95,
2010-02-12, 03:11:04,VALID,917.607,VALID,0,VALID,90.4899,VALID,0,VALID,21.3998,VALID,142,VALID,0.765234,
2010-02-12, 03:12:04,VALID,917.594,VALID,0,VALID,90.5128,VALID,0,VALID,21.3981,VALID,157,VALID,1.17305,
2010-02-12, 03:13:04,VALID,917.584,VALID,0,VALID,90.5509,VALID,0,VALID,21.4583,VALID,159,VALID,1.11328,
2010-02-12, 03:14:04,VALID,917.588,VALID,0,VALID,90.6348,VALID,0,VALID,21.4372,VALID,159,VALID,0.565234,
2010-02-12, 03:15:04,VALID,917.588,VALID,0,VALID,90.6348,VALID,0.107441,VALID,21.4177,VALID,159,VALID,0.795313,
2010-02-12, 03:16:04,VALID,917.591,VALID,0,VALID,90.7491,VALID,0,VALID,21.4193,VALID,159,VALID,0.994531,
2010-02-12, 03:17:04,VALID,917.581,VALID,0,VALID,90.8864,VALID,0,VALID,21.4193,VALID,159,VALID,1.06523,
2010-02-12, 03:18:04,VALID,917.588,VALID,0,VALID,91.0846,VALID,0,VALID,21.3786,VALID,158,VALID,1.16484,
2010-02-12, 03:19:04,VALID,917.573,VALID,0,VALID,91.3057,VALID,0,VALID,21.3803,VALID,164,VALID,0.875,
2010-02-12, 03:20:04,VALID,917.592,VALID,0,VALID,91.5572,VALID,0,VALID,21.3022,VALID,164,VALID,0.916016,
2010-02-12, 03:21:04,VALID,917.568,VALID,0,VALID,91.7173,VALID,0,VALID,21.2827,VALID,161,VALID,0.744531,
2010-02-12, 03:22:04,VALID,917.57,VALID,0,VALID,91.7783,VALID,0,VALID,21.2616,VALID,161,VALID,0.464453,
2010-02-12, 03:23:04,VALID,917.545,VALID,0,VALID,91.9994,VALID,0,VALID,21.2031,VALID,130,VALID,1.39023,
2010-02-12, 03:24:04,VALID,917.541,VALID,0,VALID,92.3348,VALID,0,VALID,21.1266,VALID,129,VALID,0.817187,
2010-02-12, 03:25:04,VALID,917.52,VALID,0,VALID,92.6931,VALID,0,VALID,21.086,VALID,129,VALID,0.730859,
2010-02-12, 03:26:04,VALID,917.507,VALID,0,VALID,92.9218,VALID,0,VALID,21.047,VALID,129,VALID,1.20352,
2010-02-12, 03:27:04,VALID,917.522,VALID,0,VALID,92.9371,VALID,0,VALID,21.0291,VALID,129,VALID,1.25625,
2010-02-12, 03:28:04,VALID,917.523,VALID,0,VALID,93.1658,VALID,0,VALID,21.0291,VALID,129,VALID,1.20508,
2010-02-12, 03:29:04,VALID,917.527,VALID,0,VALID,93.2344,VALID,0,VALID,21.0275,VALID,124,VALID,0.978906,
2010-02-12, 03:30:04,VALID,917.525,VALID,0,VALID,93.3564,VALID,0,VALID,21.0275,VALID,124,VALID,1.10039,
2010-02-12, 03:31:04,VALID,917.573,VALID,0,VALID,93.3106,VALID,0,VALID,21.0681,VALID,124,VALID,0.994922,
2010-02-12, 03:32:04,VALID,917.568,VALID,0,VALID,93.4097,VALID,0,VALID,21.0876,VALID,124,VALID,1.01367,
2010-02-12, 03:33:04,VALID,917.56,VALID,0,VALID,93.4021,VALID,0,VALID,21.0876,VALID,167,VALID,1.17266,
2010-02-12, 03:34:04,VALID,917.54,VALID,0,VALID,93.4555,VALID,0,VALID,21.047,VALID,178,VALID,0.876953,
2010-02-12, 03:35:04,VALID,917.539,VALID,0,VALID,93.5393,VALID,0,VALID,21.0486,VALID,181,VALID,0.976563,
2010-02-12, 03:36:04,VALID,917.569,VALID,0,VALID,93.6994,VALID,0,VALID,20.9885,VALID,181,VALID,1.32813,
2010-02-12, 03:37:04,VALID,917.559,VALID,0,VALID,93.9205,VALID,0,VALID,20.9706,VALID,181,VALID,1.01172,
2010-02-12, 03:38:04,VALID,917.57,VALID,0,VALID,94.073,VALID,0,VALID,20.93,VALID,177,VALID,1.19727,
2010-02-12, 03:39:04,VALID,917.553,VALID,0,VALID,94.1416,VALID,0,VALID,20.9706,VALID,179,VALID,0.967188,
2010-02-12, 03:40:04,VALID,917.531,VALID,0,VALID,94.1187,VALID,0,VALID,20.9901,VALID,179,VALID,0.83125,
2010-02-12, 03:41:04,VALID,917.517,VALID,0,VALID,94.0196,VALID,0,VALID,21.0291,VALID,164,VALID,1.22812,
2010-02-12, 03:42:04,VALID,917.484,VALID,0,VALID,93.8976,VALID,0,VALID,21.0486,VALID,177,VALID,1.1543,
2010-02-12, 03:43:04,VALID,917.491,VALID,0,VALID,93.8061,VALID,0,VALID,21.0876,VALID,177,VALID,1.43828,
2010-02-12, 03:44:04,VALID,917.474,VALID,0,VALID,93.6308,VALID,0,VALID,21.1266,VALID,169,VALID,1.90508,